Location: Bodest
(46.3000°N, 22.5667°E)
Time: 01:10:50
(UTC+00:00)

FENGYUN 1C DEB - Pass Details

Date: 05 April 2023
Orbit: 806 x 916 km, 98.8° (Epoch: 29 May)

Event Time Altitude Azimuth Distance (km) Brightness Sun altitude
Rises 17:52:15 0° 165° (SSE) 3,538 ? -9.0°
Reaches altitude 10° 17:54:40 10° 166° (SSE) 2,595 ? -9.4°
Maximum altitude 18:00:30 85° 254° (WSW) 912 ? -10.3°
Drops below altitude 10° 18:06:15 10° 345° (NNW) 2,561 ? -11.3°
Sets 18:08:37 0° 346° (NNW) 3,489 ? -11.7°
